Location: Little Bennett Regional Park
(39.2840°N, 77.2890°W)
Time: 19:25:19
(UTC-04:00)

Daily predictions for brighter satellites

Satellite Brightness Start Highest point End
(mag) Time Altitude Azimuth Time Altitude Azimuth Time Altitude Azimuth
Cosmos 2360 Rocket 2.4 20:09:10 10° SSW 20:14:48 81° WNW 20:20:28 10° NNE
SJ 16-02 4.3 20:13:31 10° WSW 20:17:01 23° WNW 20:20:32 10° N
NOSS 2-1 (C) 3.5 20:14:09 10° S 20:17:33 40° ESE 20:21:08 10° NE
Cosmos 1805 Rocket 4.0 20:13:51 10° N 20:17:59 41° ENE 20:22:05 10° SSE
OE (NEXTSAT) 4.3 20:14:54 10° WSW 20:18:27 78° SSE 20:22:01 10° ENE
NOSS 2-1 (D) 3.5 20:15:05 10° S 20:18:31 42° ESE 20:22:08 10° NE
Resurs 01 Rocket 2.7 20:16:29 10° SE 20:20:13 27° ENE 20:23:59 10° NNE
Cosmos 2333 Rocket 3.1 20:16:21 10° SSE 20:20:56 26° ESE 20:25:32 10° NE
HJ-1C 3.4 20:19:43 10° SSE 20:23:02 89° WSW 20:26:26 10° NNW
GPS 2-05 Rocket1 4.3 20:20:11 10° WSW 20:23:03 26° SSW 20:25:55 10° SE
ATLAS 2AS CENTAUR R/B 3.9 20:17:01 10° NNW 20:24:02 33° NE 20:30:37 10° ESE
COSMOS 2428 2.9 20:20:30 10° S 20:26:00 51° ESE 20:31:32 10° NNE
CZ-2D R/B 3.2 20:22:20 10° SSE 20:26:06 72° ENE 20:29:55 10° N
H-2A R/B 3.2 20:23:08 10° W 20:26:38 16° SW 20:28:35 10° S
Spot 2 Rocket 4.5 20:24:22 10° SE 20:28:42 29° ENE 20:33:03 10° N
Cosmos 2333 4.3 20:23:48 10° S 20:29:19 57° ESE 20:34:49 10° NNE
FREGAT/IRIS 4.0 20:26:57 10° S 20:29:46 40° W 20:32:34 10° NNW
Cosmos 1844 Rocket 3.0 20:29:53 10° NNW 20:35:26 52° ENE 20:40:56 10° SE
Cosmos 1844 4.3 20:30:07 10° N 20:35:28 41° ENE 20:40:34 11° SE
Cosmos 2263 Rocket 4.1 20:32:10 10° NW 20:37:07 31° WSW 20:42:01 10° SSW
Cosmos 1455 3.2 20:34:34 10° SSE 20:37:46 26° E 20:41:01 10° NNE
Cosmos 2237 Rocket 3.3 20:38:40 10° SSE 20:42:54 22° E 20:47:08 10° NE
Cosmos 2219 Rocket 2.4 20:38:19 10° S 20:43:44 49° ESE 20:49:09 10° NE
Cosmos 2074 Rocket 4.4 20:37:48 10° SSW 20:44:04 69° W 20:50:22 10° N
Cosmos 1892 3.2 20:40:37 10° N 20:44:19 41° E 20:47:46 11° SSE
ERS-2 2.1 20:40:50 10° SSE 20:44:29 89° WSW 20:48:11 10° NNW
BREEZE-M DEB (TANK) 3.9 20:43:11 10° NW 20:47:44 32° NNE 20:49:39 14° ENE
NOSS 2-1 (E) 3.1 20:45:12 10° SSW 20:48:49 86° ESE 20:52:46 10° NE
Cosmos 1408 4.4 20:48:04 10° NE 20:50:14 15° ENE 20:50:50 14° E
NOSS 0 Rocket 4.5 20:44:51 10° SSE 20:50:21 35° ESE 20:55:53 10° NE
Cosmos 1610 Rocket 4.5 20:44:19 10° S 20:50:26 89° E 20:56:38 10° N
ATLAS CENTAUR R/B 1.8 20:47:55 10° S 20:51:05 29° ESE 20:54:23 10° NE
Cosmos 2278 Rocket 3.5 20:47:40 10° N 20:52:18 25° NE 20:55:31 16° E
Timation 1 Rocket 4.4 20:51:03 10° NNW 20:57:01 65° ENE 21:01:56 15° SE
USA 186 1.0 20:55:32 15° S 20:57:15 69° W 20:59:29 10° NNW
Cosmos 1666 Rocket 3.5 20:53:53 10° N 20:58:22 74° E 21:02:49 10° SSE
Resurs 1-3 3.5 20:54:10 10° SSE 20:58:31 73° ENE 21:02:55 10° N
H-2A R/B 3.6 20:58:30 15° E 21:00:18 18° ENE 21:03:34 10° NNE
NOSS 3-3 (A) 3.9 20:54:33 10° SSW 21:00:28 70° ESE 21:06:57 10° NE
NOSS 3-3 (C) 3.9 20:54:40 10° SSW 21:00:34 69° ESE 21:07:02 10° NE
OAO 2 Rocket 3.7 20:56:52 10° W 21:01:53 50° S 21:04:57 22° ESE
YAOGAN 6 2.8 21:02:06 10° S 21:05:39 71° W 21:09:17 10° NNW
Meteor 2-21 Rocket 4.4 21:00:05 10° S 21:06:11 79° E 21:12:22 10° N
ERS-1 Rocket 4.4 21:10:18 18° E 21:11:43 21° ENE 21:15:22 10° NNE
USA 267 3.9 21:06:35 10° ENE 21:12:09 29° SE 21:17:43 10° S
Sich 1 3.3 21:09:14 10° NNW 21:13:29 66° W 21:17:42 10° S
SAR-Lupe-3 4.5 21:10:22 10° NNE 21:13:58 90° W 21:17:33 10° SSW
Cosmos 1340 3.9 21:11:04 10° SSW 21:14:41 43° WNW 21:18:20 10° N
Nadezhda 3 Rocket 4.1 21:08:28 10° N 21:14:48 83° W 21:21:09 10° S
Cosmos 1151 Rocket 3.2 21:13:26 22° SSE 21:15:49 45° E 21:19:55 10° NNE
Cosmos 220 Rocket 4.2 21:13:17 10° N 21:17:33 52° ENE 21:19:12 32° SE
Cosmos 2251 Rocket 3.8 21:13:00 10° NNW 21:18:22 70° WSW 21:23:05 13° S
Cosmos 1939 Rocket 3.5 21:16:18 10° S 21:20:03 51° W 21:23:52 10° NNW
Cosmos 1825 2.7 21:24:44 10° N 21:28:18 38° ENE 21:28:24 38° E
Meteor 2-3 Rocket 3.7 21:24:43 10° N 21:30:20 86° W 21:34:38 18° S
SL-16 R/B 3.6 21:33:18 19° ENE 21:33:18 19° ENE 21:35:48 10° NE
Cosmos 2098 Rocket 3.7 21:31:02 37° ESE 21:31:34 38° E 21:35:27 10° NNE
Cosmos 1633 Rocket 3.7 21:28:02 10° NNW 21:32:16 55° W 21:35:51 14° S
Cosmos 2056 Rocket 4.2 21:32:53 32° ESE 21:32:58 32° E 21:37:44 10° NE
Cosmos 1869 3.7 21:34:42 42° E 21:34:42 42° E 21:38:21 10° NNE
Cosmos 2228 Rocket 2.9 21:32:02 19° S 21:35:06 82° E 21:39:31 10° N
SL-8 R/B 3.6 21:34:28 10° SW 21:39:13 67° SE 21:41:34 29° ENE
SL-24 R/B - RUBIN 2 4.5 21:36:28 10° NW 21:40:34 41° WSW 21:42:34 25° S
Cosmos 1515 Rocket 3.5 21:37:19 18° S 21:40:36 86° W 21:45:06 10° N
ARGOS 3.2 21:44:34 42° SE 21:46:14 62° ENE 21:51:31 10° N
Helios 1A 4.2 21:49:42 28° NE 21:49:42 28° NE 21:52:45 10° N
Cosmos 1624 Rocket 4.1 21:50:09 48° ESE 21:50:18 49° ESE 21:55:18 10° NNE
GEOS 3 Rocket 3.6 21:45:32 10° NE 21:50:50 62° ESE 21:56:00 10° SSW
BREEZE-M DEB (TANK) 3.8 21:49:01 10° NW 21:51:02 25° N 21:51:02 25° N
SL-08 RB Rocket 3.8 21:52:57 53° E 21:53:06 53° ENE 21:57:28 10° N
MetOp-B 4.1 21:51:53 48° SE 21:53:11 64° ENE 21:58:29 10° N
Resurs 01 Rocket 3.6 21:52:54 10° SSW 21:56:37 26° W 22:00:21 10° NW
Cosmos 1980 3.8 21:52:51 10° SSW 21:58:32 76° WNW 22:04:14 10° NNE
Cosmos 2297 4.5 21:57:16 10° N 22:02:27 35° ENE 22:02:58 35° ENE
Cosmos 1727 Rocket 3.9 21:57:30 10° N 22:03:39 64° E 22:04:56 52° SE
Cosmos 1959 Rocket 4.5 22:00:08 20° S 22:04:35 82° W 22:10:45 10° N
Cosmos 2333 Rocket 3.4 21:59:36 10° SW 22:04:56 42° WNW 22:10:18 10° N
Meteor 2-10 Rocket 3.6 22:11:14 50° S 22:12:49 85° E 22:18:39 10° N
ATLAS 2AS CENTAUR R/B 3.1 22:07:52 10° NW 22:15:37 65° WSW 22:18:17 40° S
Cosmos 2218 Rocket 4.3 22:11:56 17° SSW 22:16:55 65° W 22:23:18 10° N
DMSP B5D2-2 4.4 22:13:48 10° NNE 22:18:05 51° ENE 22:18:05 51° ENE
Terra 3.4 22:21:54 24° NE 22:21:54 24° NE 22:24:38 10° NNE
ATLAS 2A CENTAUR R/B 4.4 22:12:35 10° SW 22:24:57 30° S 22:24:57 30° S
Cosmos 1408 4.3 22:22:10 10° NNW 22:25:16 29° W 22:25:16 29° W
Cosmos 2237 Rocket 3.1 22:21:10 10° SW 22:26:34 47° WNW 22:32:00 10° NNE
Cosmos 2219 Rocket 4.4 22:23:23 10° WSW 22:27:55 24° NW 22:32:28 10° N
SPOT 5 3.3 22:30:51 51° NNE 22:30:51 51° NNE 22:34:20 10° N
ATLAS CENTAUR R/B 3.7 22:27:14 10° W 22:30:04 21° NW 22:33:01 10° N
SPOT 1/Viking Rocket 3.7 22:31:21 62° NE 22:31:21 62° NE 22:36:00 10° N
Lacrosse 5 4.4 22:29:32 10° N 22:31:51 13° NNE 22:34:10 10° NE
USA 81 4.0 22:27:42 10° N 22:32:58 80° W 22:32:58 80° W
Cosmos 2278 Rocket 2.8 22:31:11 10° NW 22:36:36 47° WSW 22:37:23 44° SW
H-2A R/B 2.5 22:39:07 53° WSW 22:39:18 53° W 22:44:12 10° NNW
NOSS 3-4 (A) 3.8 22:38:52 10° NNW 22:45:58 73° NE 22:46:43 67° E
NOSS 3-4 (C) 3.8 22:38:59 10° NNW 22:46:04 72° NE 22:46:49 67° E
ATLAS 5 CENTAUR R/B 4.4 22:44:43 10° N 22:48:18 16° NE 22:49:40 15° NE
Cosmos 407 Rocket 3.9 22:43:45 10° NNW 22:48:01 60° NW 22:48:01 60° NW
ERS-1 Rocket 3.8 22:50:18 45° W 22:50:18 45° W 22:54:58 10° NNW
USA 267 3.4 22:48:57 10° NE 22:55:29 73° NW 23:01:58 10° WSW
Cosmos 2344 3.4 23:10:53 73° SSW 23:11:49 90° ENE 23:20:05 10° NE
SL-16 R/B 3.0 23:15:04 47° WNW 23:15:13 47° WNW 23:20:41 10° NNE
USA 234 3.7 23:27:52 51° NE 23:27:56 51° NE 23:34:14 10° NW
Cosmos 1943 Rocket 3.9 23:29:05 10° N 23:32:07 24° NNE 23:32:07 24° NNE
